User: anonymous   Login
Location: ActonStarParty
(42.4766°N, 71.4538°W)
Time: 13:17:15
(UTC-04:00)
Language:

Cosmos 1300 - Orbit

View from above orbital plane
View from above orbital plane
View from above satellite
View from above satellite

Ground track
Ground track

The orbit data is extracted from the following two-line orbital elements,

1 12785U 81082A   17174.80879273 +.00000393 +00000-0 +18443-4 0  9995
2 12785 082.5047 066.7435 0001216 132.0722 294.3139 15.16721317952853
Epoch (UTC): 23 June 2017 19:24:39
Eccentricity: 0.0001216
inclination: 82.5047°
perigee height: 515 km
apogee height: 516 km
right ascension of ascending node: 66.7435°
argument of perigee: 132.0722°
revolutions per day: 15.16721317
mean anomaly at epoch: 294.3139°
orbit number at epoch: 95285

The dashed part of the orbit path shows where the satellite is in the earth's shadow,  

DLR